Multibeam Report for CV07_02


Ship Name: Celtic Voyager
Chief Scientist: Sheehan, Kevin
Geological Survey of Ireland
Source Organization: Geological Survey of Ireland (GSI)
Start Date: 2007-09-06
End Date: 2007-10-17


View ISO Metadata

Visit the full NCEI Bathymetry Viewer


Multibeam Bathymetry

Cruise Details

Project: INFOMAR
Instrument: Simrad EM1002

Data Quality

Number of Files: 958
Number of Records: 6369945
BATHYMETRY DATA Quantity Percentage
Number of Beams 707063895 100%
Number of Good Beams 706584077 99.93%
Number of Zero Beams 479818 0.07%
Number of Flagged Beams 0 0%
AMPLITUDE DATA Quantity Percentage
Number of Beams 707063895 100%
Number of Good Beams 706584077 99.93%
Number of Zero Beams 479818 0.07%
Number of Flagged Beams 0 0%
SIDESCAN DATA Quantity Percentage
Number of Pixels 6522823680 100%
Number of Good Pixels 4507258865 69.1%
Number of Zero Pixels 0 0%
Number of Flagged Pixels 2015564815 30.9%

Navigation Totals

Total Time: 410.2577 hours
Total Track Length: 5356.6615 km
Average Speed: 13.057 km/hr (7.0502 knots)

Cruise Bounds

Northern Extent: 52.15852
Southern Extent: 51.4752
Western Extent: -10.043688
Eastern Extent: -6.63533

Limits

Minimum Sonar Depth 2.42 Maximum Sonar Depth 5.92
Minimum Altitude 0 Maximum Altitude 77.61
Minimum Depth 6.87 Maximum Depth 104.1
Minimum Amplitude 0 Maximum Amplitude 12
Minimum Sidescan 0 Maximum Sidescan 26.27

File Information

Full Resolution Bathymetry as collected (raw): 957

Files File Size Description
0001_20070928_233033_raw.mb56.gz 38.26MB Simrad multibeam vendor format
0002_20070929_001041_raw.mb56.gz 111.36MB Simrad multibeam vendor format
0003_20070929_015519_raw.mb56.gz 81.87MB Simrad multibeam vendor format
0004_20070929_031432_raw.mb56.gz 110.23MB Simrad multibeam vendor format
0005_20070929_045841_raw.mb56.gz 38.23MB Simrad multibeam vendor format
0006_20070929_053602_raw.mb56.gz 43.78MB Simrad multibeam vendor format
0007_20070929_064355_raw.mb56.gz 182.56MB Simrad multibeam vendor format
0008_20070929_093504_raw.mb56.gz 98.14MB Simrad multibeam vendor format
0009_20070929_110845_raw.mb56.gz 175.23MB Simrad multibeam vendor format
0010_20070929_134702_raw.mb56.gz 4.12MB Simrad multibeam vendor format
0011_20070929_135448_raw.mb56.gz 8.80MB Simrad multibeam vendor format
0012_20070929_140812_raw.mb56.gz 257.65MB Simrad multibeam vendor format
0013_20070929_192515_raw.mb56.gz 81.24MB Simrad multibeam vendor format
0014_20070929_204924_raw.mb56.gz 39.59MB Simrad multibeam vendor format
0015_20070929_212749_raw.mb56.gz 40.84MB Simrad multibeam vendor format
0016_20070929_221037_raw.mb56.gz 79.62MB Simrad multibeam vendor format
0017_20070929_232615_raw.mb56.gz 76.39MB Simrad multibeam vendor format
0018_20070930_003833_raw.mb56.gz 80.01MB Simrad multibeam vendor format
0019_20070930_015353_raw.mb56.gz 76.39MB Simrad multibeam vendor format
0020_20070930_030619_raw.mb56.gz 77.83MB Simrad multibeam vendor format
0021_20070930_041939_raw.mb56.gz 78.63MB Simrad multibeam vendor format
0022_20070930_053425_raw.mb56.gz 79.32MB Simrad multibeam vendor format
0023_20070930_071025_raw.mb56.gz 241.05MB Simrad multibeam vendor format
0024_20070930_105225_raw.mb56.gz 252.90MB Simrad multibeam vendor format
0025_20070930_143743_raw.mb56.gz 159.29MB Simrad multibeam vendor format
0026_20070930_170001_raw.mb56.gz 152.24MB Simrad multibeam vendor format
0027_20070930_194215_raw.mb56.gz 86.25MB Simrad multibeam vendor format
0028_20070930_210327_raw.mb56.gz 105.77MB Simrad multibeam vendor format
0029_20070930_224126_raw.mb56.gz 88.70MB Simrad multibeam vendor format
0030_20071001_000339_raw.mb56.gz 108.06MB Simrad multibeam vendor format
0031_20071001_014239_raw.mb56.gz 90.21MB Simrad multibeam vendor format
0032_20071001_030544_raw.mb56.gz 104.71MB Simrad multibeam vendor format
0033_20071001_044146_raw.mb56.gz 52.95MB Simrad multibeam vendor format
0034_20071001_053122_raw.mb56.gz 61.63MB Simrad multibeam vendor format
0035_20071001_064630_raw.mb56.gz 306.11MB Simrad multibeam vendor format
0036_20071001_112054_raw.mb56.gz 272.71MB Simrad multibeam vendor format
0037_20071001_153047_raw.mb56.gz 307.86MB Simrad multibeam vendor format
0038_20071001_201902_raw.mb56.gz 4.70MB Simrad multibeam vendor format
0039_20071001_203259_raw.mb56.gz 61.98MB Simrad multibeam vendor format
0040_20071001_214210_raw.mb56.gz 57.84MB Simrad multibeam vendor format
0041_20071001_223643_raw.mb56.gz 67.17MB Simrad multibeam vendor format
0042_20071001_233727_raw.mb56.gz 68.73MB Simrad multibeam vendor format
0043_20071003_091533_raw.mb56.gz 124.45MB Simrad multibeam vendor format
0044_20071003_111058_raw.mb56.gz 102.27MB Simrad multibeam vendor format
0045_20071003_124705_raw.mb56.gz 2.62MB Simrad multibeam vendor format
0046_20071003_131850_raw.mb56.gz 55.60MB Simrad multibeam vendor format
0047_20071003_142544_raw.mb56.gz 45.20MB Simrad multibeam vendor format
0048_20071003_151803_raw.mb56.gz 50.30MB Simrad multibeam vendor format
0049_20071003_161601_raw.mb56.gz 35.20MB Simrad multibeam vendor format
0050_20071003_165728_raw.mb56.gz 16.85MB Simrad multibeam vendor format
0051_20071003_193409_raw.mb56.gz 175.63MB Simrad multibeam vendor format
0052_20071003_221557_raw.mb56.gz 82.36MB Simrad multibeam vendor format
0053_20071004_000428_raw.mb56.gz 44.82MB Simrad multibeam vendor format
0054_20071004_004817_raw.mb56.gz 43.17MB Simrad multibeam vendor format
0055_20071004_013246_raw.mb56.gz 46.06MB Simrad multibeam vendor format
0056_20071004_021754_raw.mb56.gz 39.16MB Simrad multibeam vendor format
0057_20071004_025902_raw.mb56.gz 39.43MB Simrad multibeam vendor format
0058_20071004_033744_raw.mb56.gz 32.94MB Simrad multibeam vendor format
0059_20071004_041218_raw.mb56.gz 33.45MB Simrad multibeam vendor format
0060_20071004_044528_raw.mb56.gz 28.66MB Simrad multibeam vendor format
0061_20071004_051550_raw.mb56.gz 27.93MB Simrad multibeam vendor format
0062_20071004_054400_raw.mb56.gz 23.13MB Simrad multibeam vendor format
0063_20071004_062723_raw.mb56.gz 51.86MB Simrad multibeam vendor format
0064_20071004_073100_raw.mb56.gz 199.25MB Simrad multibeam vendor format
0065_20071004_102836_raw.mb56.gz 57.37MB Simrad multibeam vendor format
0066_20071004_112846_raw.mb56.gz 11.88MB Simrad multibeam vendor format
0067_20071004_141318_raw.mb56.gz 195.45MB Simrad multibeam vendor format
0068_20071004_170527_raw.mb56.gz 100.41MB Simrad multibeam vendor format
0069_20071004_185833_raw.mb56.gz 10.87MB Simrad multibeam vendor format
0070_20071004_191308_raw.mb56.gz 98.23MB Simrad multibeam vendor format
0071_20071004_210512_raw.mb56.gz 72.28MB Simrad multibeam vendor format
0072_20071004_221010_raw.mb56.gz 10.85MB Simrad multibeam vendor format
0073_20071004_224015_raw.mb56.gz 20.03MB Simrad multibeam vendor format
0074_20071004_230131_raw.mb56.gz 8.68MB Simrad multibeam vendor format
0075_20071004_232340_raw.mb56.gz 23.35MB Simrad multibeam vendor format
0076_20071004_234841_raw.mb56.gz 79.78MB Simrad multibeam vendor format
0077_20071005_010251_raw.mb56.gz 85.16MB Simrad multibeam vendor format
0078_20071005_021620_raw.mb56.gz 80.32MB Simrad multibeam vendor format
0079_20071005_032708_raw.mb56.gz 55.89MB Simrad multibeam vendor format
0080_20071005_041754_raw.mb56.gz 52.83MB Simrad multibeam vendor format
0081_20071005_050403_raw.mb56.gz 26.96MB Simrad multibeam vendor format
0082_20071005_053009_raw.mb56.gz 25.21MB Simrad multibeam vendor format
0083_20071005_060928_raw.mb56.gz 175.84MB Simrad multibeam vendor format
0084_20071005_084255_raw.mb56.gz 166.86MB Simrad multibeam vendor format
0085_20071005_121817_raw.mb56.gz 108.19MB Simrad multibeam vendor format
0086_20071005_134704_raw.mb56.gz 99.59MB Simrad multibeam vendor format
0087_20071005_152147_raw.mb56.gz 99.49MB Simrad multibeam vendor format
0088_20071005_184549_raw.mb56.gz 108.06MB Simrad multibeam vendor format
0089_20071005_202403_raw.mb56.gz 4.03MB Simrad multibeam vendor format
0090_20071005_205005_raw.mb56.gz 100.02MB Simrad multibeam vendor format
0091_20071005_221231_raw.mb56.gz 107.34MB Simrad multibeam vendor format
0092_20071005_233702_raw.mb56.gz 103.20MB Simrad multibeam vendor format
0093_20071006_005746_raw.mb56.gz 105.08MB Simrad multibeam vendor format
0094_20071006_022005_raw.mb56.gz 103.48MB Simrad multibeam vendor format
0095_20071006_034109_raw.mb56.gz 103.66MB Simrad multibeam vendor format
0096_20071006_050314_raw.mb56.gz 27.55MB Simrad multibeam vendor format
0097_20071006_052736_raw.mb56.gz 27.66MB Simrad multibeam vendor format
0098_20071006_060002_raw.mb56.gz 174.11MB Simrad multibeam vendor format
0099_20071006_083055_raw.mb56.gz 61.29MB Simrad multibeam vendor format
0100_20071006_092840_raw.mb56.gz 99.86MB Simrad multibeam vendor format
0101_20071006_110102_raw.mb56.gz 170.70MB Simrad multibeam vendor format
0102_20071006_133753_raw.mb56.gz 19.07MB Simrad multibeam vendor format
0103_20071006_140013_raw.mb56.gz 3.50MB Simrad multibeam vendor format
0104_20071006_140957_raw.mb56.gz 42.68MB Simrad multibeam vendor format
0105_20071006_145333_raw.mb56.gz 61.40MB Simrad multibeam vendor format
0106_20071006_155538_raw.mb56.gz 183.57MB Simrad multibeam vendor format
0107_20071006_191352_raw.mb56.gz 92.44MB Simrad multibeam vendor format
0108_20071006_203621_raw.mb56.gz 81.23MB Simrad multibeam vendor format
0109_20071006_215015_raw.mb56.gz 76.81MB Simrad multibeam vendor format
0110_20071006_230202_raw.mb56.gz 110.68MB Simrad multibeam vendor format
0111_20071007_003609_raw.mb56.gz 101.54MB Simrad multibeam vendor format
0112_20071007_020500_raw.mb56.gz 103.32MB Simrad multibeam vendor format
0113_20071007_033119_raw.mb56.gz 96.52MB Simrad multibeam vendor format
0114_20071007_045712_raw.mb56.gz 91.36MB Simrad multibeam vendor format
0115_20071007_061906_raw.mb56.gz 184.55MB Simrad multibeam vendor format
0116_20071007_092802_raw.mb56.gz 24.90MB Simrad multibeam vendor format
0117_20071007_095021_raw.mb56.gz 24.85MB Simrad multibeam vendor format
0118_20071007_101325_raw.mb56.gz 22.66MB Simrad multibeam vendor format
0119_20071007_103352_raw.mb56.gz 22.99MB Simrad multibeam vendor format
0120_20071007_105559_raw.mb56.gz 21.11MB Simrad multibeam vendor format
0121_20071007_111445_raw.mb56.gz 23.91MB Simrad multibeam vendor format
0122_20071007_113706_raw.mb56.gz 21.03MB Simrad multibeam vendor format
0123_20071007_115619_raw.mb56.gz 24.43MB Simrad multibeam vendor format
0124_20071007_121949_raw.mb56.gz 1.57MB Simrad multibeam vendor format
0125_20071007_122548_raw.mb56.gz 20.33MB Simrad multibeam vendor format
0126_20071007_124517_raw.mb56.gz 25.07MB Simrad multibeam vendor format
0127_20071007_131136_raw.mb56.gz 23.03MB Simrad multibeam vendor format
0128_20071007_133241_raw.mb56.gz 25.26MB Simrad multibeam vendor format
0129_20071007_135520_raw.mb56.gz 22.39MB Simrad multibeam vendor format
0130_20071007_141558_raw.mb56.gz 25.23MB Simrad multibeam vendor format
0131_20071007_143751_raw.mb56.gz 25.42MB Simrad multibeam vendor format
0132_20071007_150219_raw.mb56.gz 24.37MB Simrad multibeam vendor format
0133_20071007_152356_raw.mb56.gz 28.61MB Simrad multibeam vendor format
0134_20071007_155204_raw.mb56.gz 96.57MB Simrad multibeam vendor format
0135_20071007_172201_raw.mb56.gz 71.42MB Simrad multibeam vendor format
0136_20071007_183426_raw.mb56.gz 21.84MB Simrad multibeam vendor format
0137_20071007_185504_raw.mb56.gz 22.52MB Simrad multibeam vendor format
0138_20071007_191752_raw.mb56.gz 26.87MB Simrad multibeam vendor format
0139_20071007_194132_raw.mb56.gz 19.69MB Simrad multibeam vendor format
0140_20071007_195948_raw.mb56.gz 22.39MB Simrad multibeam vendor format
0141_20071007_202017_raw.mb56.gz 0.91MB Simrad multibeam vendor format
0142_20071007_202458_raw.mb56.gz 19.98MB Simrad multibeam vendor format
0143_20071007_204449_raw.mb56.gz 24.37MB Simrad multibeam vendor format
0144_20071007_210713_raw.mb56.gz 20.08MB Simrad multibeam vendor format
0145_20071007_212940_raw.mb56.gz 20.17MB Simrad multibeam vendor format
0146_20071007_215317_raw.mb56.gz 19.59MB Simrad multibeam vendor format
0147_20071007_221157_raw.mb56.gz 18.76MB Simrad multibeam vendor format
0148_20071007_222922_raw.mb56.gz 19.69MB Simrad multibeam vendor format
0149_20071007_225341_raw.mb56.gz 24.27MB Simrad multibeam vendor format
0150_20071007_231516_raw.mb56.gz 19.08MB Simrad multibeam vendor format
0151_20071007_233239_raw.mb56.gz 15.65MB Simrad multibeam vendor format
0152_20071007_234655_raw.mb56.gz 27.12MB Simrad multibeam vendor format
0153_20071008_001113_raw.mb56.gz 24.75MB Simrad multibeam vendor format
0154_20071008_003256_raw.mb56.gz 20.21MB Simrad multibeam vendor format
0155_20071008_004951_raw.mb56.gz 17.29MB Simrad multibeam vendor format
0156_20071008_010506_raw.mb56.gz 19.33MB Simrad multibeam vendor format
0157_20071008_012146_raw.mb56.gz 18.10MB Simrad multibeam vendor format
0158_20071008_013858_raw.mb56.gz 29.48MB Simrad multibeam vendor format
0159_20071008_020426_raw.mb56.gz 14.87MB Simrad multibeam vendor format
0160_20071008_021757_raw.mb56.gz 17.47MB Simrad multibeam vendor format
0161_20071008_023815_raw.mb56.gz 12.99MB Simrad multibeam vendor format
0162_20071008_024916_raw.mb56.gz 13.55MB Simrad multibeam vendor format
0163_20071008_030108_raw.mb56.gz 13.13MB Simrad multibeam vendor format
0164_20071008_031211_raw.mb56.gz 13.81MB Simrad multibeam vendor format
0165_20071008_032554_raw.mb56.gz 10.73MB Simrad multibeam vendor format
0166_20071008_033833_raw.mb56.gz 14.87MB Simrad multibeam vendor format
0167_20071008_035253_raw.mb56.gz 12.35MB Simrad multibeam vendor format
0168_20071008_040327_raw.mb56.gz 13.72MB Simrad multibeam vendor format
0169_20071008_041727_raw.mb56.gz 11.06MB Simrad multibeam vendor format
0170_20071008_042810_raw.mb56.gz 12.63MB Simrad multibeam vendor format
0171_20071008_044051_raw.mb56.gz 11.50MB Simrad multibeam vendor format
0172_20071008_045127_raw.mb56.gz 12.90MB Simrad multibeam vendor format
0173_20071008_050521_raw.mb56.gz 9.74MB Simrad multibeam vendor format
0174_20071008_051504_raw.mb56.gz 11.09MB Simrad multibeam vendor format
0175_20071008_052741_raw.mb56.gz 9.04MB Simrad multibeam vendor format
0176_20071008_053700_raw.mb56.gz 11.05MB Simrad multibeam vendor format
0177_20071008_061537_raw.mb56.gz 110.93MB Simrad multibeam vendor format
0178_20071008_074830_raw.mb56.gz 73.36MB Simrad multibeam vendor format
0179_20071008_085706_raw.mb56.gz 20.08MB Simrad multibeam vendor format
0180_20071008_091744_raw.mb56.gz 10.55MB Simrad multibeam vendor format
0181_20071008_092842_raw.mb56.gz 6.71MB Simrad multibeam vendor format
0182_20071008_093608_raw.mb56.gz 9.14MB Simrad multibeam vendor format
0183_20071008_094522_raw.mb56.gz 6.92MB Simrad multibeam vendor format
0184_20071008_095326_raw.mb56.gz 5.98MB Simrad multibeam vendor format
0185_20071008_095948_raw.mb56.gz 0.90MB Simrad multibeam vendor format
0186_20071008_100200_raw.mb56.gz 5.99MB Simrad multibeam vendor format
0187_20071008_100916_raw.mb56.gz 1.75MB Simrad multibeam vendor format
0188_20071008_101528_raw.mb56.gz 10.03MB Simrad multibeam vendor format
0189_20071008_102729_raw.mb56.gz 8.37MB Simrad multibeam vendor format
0190_20071008_103623_raw.mb56.gz 6.69MB Simrad multibeam vendor format
0191_20071008_104612_raw.mb56.gz 8.10MB Simrad multibeam vendor format
0192_20071008_105654_raw.mb56.gz 16.51MB Simrad multibeam vendor format
0193_20071008_111305_raw.mb56.gz 25.77MB Simrad multibeam vendor format
0194_20071008_113758_raw.mb56.gz 28.71MB Simrad multibeam vendor format
0195_20071008_120344_raw.mb56.gz 23.94MB Simrad multibeam vendor format
0196_20071008_122750_raw.mb56.gz 24.77MB Simrad multibeam vendor format
0197_20071008_125218_raw.mb56.gz 20.73MB Simrad multibeam vendor format
0198_20071008_131032_raw.mb56.gz 1.35MB Simrad multibeam vendor format
0199_20071008_131606_raw.mb56.gz 23.95MB Simrad multibeam vendor format
0200_20071008_134539_raw.mb56.gz 2.64MB Simrad multibeam vendor format
0201_20071008_135614_raw.mb56.gz 4.57MB Simrad multibeam vendor format
0202_20071008_140327_raw.mb56.gz 2.02MB Simrad multibeam vendor format
0203_20071008_141115_raw.mb56.gz 10.22MB Simrad multibeam vendor format
0204_20071008_142233_raw.mb56.gz 1.84MB Simrad multibeam vendor format
0205_20071008_144841_raw.mb56.gz 31.95MB Simrad multibeam vendor format
0206_20071008_160813_raw.mb56.gz 193.61MB Simrad multibeam vendor format
0207_20071008_190746_raw.mb56.gz 99.94MB Simrad multibeam vendor format
0208_20071008_203802_raw.mb56.gz 93.23MB Simrad multibeam vendor format
0209_20071008_220802_raw.mb56.gz 84.52MB Simrad multibeam vendor format
0210_20071009_003132_raw.mb56.gz 11.78MB Simrad multibeam vendor format
0211_20071009_004445_raw.mb56.gz 80.76MB Simrad multibeam vendor format
0212_20071009_015513_raw.mb56.gz 105.56MB Simrad multibeam vendor format
0213_20071009_032825_raw.mb56.gz 81.97MB Simrad multibeam vendor format
0214_20071009_044006_raw.mb56.gz 31.21MB Simrad multibeam vendor format
0215_20071009_052733_raw.mb56.gz 72.77MB Simrad multibeam vendor format
0216_20071009_063449_raw.mb56.gz 128.80MB Simrad multibeam vendor format
0217_20071009_082717_raw.mb56.gz 16.40MB Simrad multibeam vendor format
0218_20071009_084337_raw.mb56.gz 14.51MB Simrad multibeam vendor format
0219_20071009_085958_raw.mb56.gz 41.76MB Simrad multibeam vendor format
0220_20071009_093921_raw.mb56.gz 23.07MB Simrad multibeam vendor format
0221_20071009_100518_raw.mb56.gz 29.47MB Simrad multibeam vendor format
0222_20071009_103354_raw.mb56.gz 31.29MB Simrad multibeam vendor format
0223_20071009_110345_raw.mb56.gz 30.01MB Simrad multibeam vendor format
0224_20071009_113213_raw.mb56.gz 16.16MB Simrad multibeam vendor format
0225_20071009_114805_raw.mb56.gz 16.86MB Simrad multibeam vendor format
0226_20071009_120235_raw.mb56.gz 26.41MB Simrad multibeam vendor format
0227_20071009_122709_raw.mb56.gz 21.55MB Simrad multibeam vendor format
0228_20071009_124547_raw.mb56.gz 2.99MB Simrad multibeam vendor format
0229_20071009_125411_raw.mb56.gz 0.59MB Simrad multibeam vendor format
0230_20071009_125742_raw.mb56.gz 1.57MB Simrad multibeam vendor format
0231_20071009_130502_raw.mb56.gz 2.70MB Simrad multibeam vendor format
0232_20071009_131406_raw.mb56.gz 1.96MB Simrad multibeam vendor format
0233_20071009_132414_raw.mb56.gz 25.21MB Simrad multibeam vendor format
0234_20071009_135634_raw.mb56.gz 10.88MB Simrad multibeam vendor format
0235_20071009_141112_raw.mb56.gz 14.08MB Simrad multibeam vendor format
0236_20071009_143149_raw.mb56.gz 10.93MB Simrad multibeam vendor format
0237_20071009_144726_raw.mb56.gz 9.93MB Simrad multibeam vendor format
0238_20071009_151629_raw.mb56.gz 35.46MB Simrad multibeam vendor format
0239_20071009_155254_raw.mb56.gz 15.91MB Simrad multibeam vendor format
0240_20071009_161044_raw.mb56.gz 12.35MB Simrad multibeam vendor format
0241_20071009_162418_raw.mb56.gz 14.27MB Simrad multibeam vendor format
0242_20071009_164014_raw.mb56.gz 11.28MB Simrad multibeam vendor format
0243_20071009_170240_raw.mb56.gz 42.56MB Simrad multibeam vendor format
0244_20071009_174526_raw.mb56.gz 98.95MB Simrad multibeam vendor format
0245_20071009_191611_raw.mb56.gz 68.15MB Simrad multibeam vendor format
0246_20071009_203734_raw.mb56.gz 42.38MB Simrad multibeam vendor format
0247_20071009_212032_raw.mb56.gz 61.65MB Simrad multibeam vendor format
0248_20071009_222012_raw.mb56.gz 54.10MB Simrad multibeam vendor format
0249_20071009_231214_raw.mb56.gz 57.31MB Simrad multibeam vendor format
0250_20071010_000629_raw.mb56.gz 48.55MB Simrad multibeam vendor format
0251_20071010_005236_raw.mb56.gz 52.18MB Simrad multibeam vendor format
0252_20071010_014008_raw.mb56.gz 45.09MB Simrad multibeam vendor format
0253_20071010_022142_raw.mb56.gz 46.78MB Simrad multibeam vendor format
0254_20071010_030338_raw.mb56.gz 34.78MB Simrad multibeam vendor format
0255_20071010_033633_raw.mb56.gz 32.62MB Simrad multibeam vendor format
0256_20071010_040548_raw.mb56.gz 28.68MB Simrad multibeam vendor format
0257_20071010_043240_raw.mb56.gz 25.18MB Simrad multibeam vendor format
0258_20071010_045525_raw.mb56.gz 21.37MB Simrad multibeam vendor format
0259_20071010_051547_raw.mb56.gz 17.74MB Simrad multibeam vendor format
0260_20071010_053403_raw.mb56.gz 13.58MB Simrad multibeam vendor format
0261_20071010_054902_raw.mb56.gz 8.35MB Simrad multibeam vendor format
0262_20071010_061923_raw.mb56.gz 63.94MB Simrad multibeam vendor format
0263_20071010_071914_raw.mb56.gz 48.99MB Simrad multibeam vendor format
0264_20071010_081137_raw.mb56.gz 3.02MB Simrad multibeam vendor format
0265_20071010_082136_raw.mb56.gz 49.96MB Simrad multibeam vendor format
0266_20071010_090859_raw.mb56.gz 60.44MB Simrad multibeam vendor format
0267_20071010_101256_raw.mb56.gz 35.20MB Simrad multibeam vendor format
0268_20071010_104533_raw.mb56.gz 71.99MB Simrad multibeam vendor format
0269_20071010_114848_raw.mb56.gz 98.75MB Simrad multibeam vendor format
0270_20071010_132159_raw.mb56.gz 4.75MB Simrad multibeam vendor format
0271_20071010_132958_raw.mb56.gz 20.27MB Simrad multibeam vendor format
0272_20071010_134832_raw.mb56.gz 44.39MB Simrad multibeam vendor format
0273_20071010_145053_raw.mb56.gz 2.95MB Simrad multibeam vendor format
0274_20071010_174416_raw.mb56.gz 72.54MB Simrad multibeam vendor format
0275_20071010_184614_raw.mb56.gz 39.16MB Simrad multibeam vendor format
0276_20071010_193458_raw.mb56.gz 67.10MB Simrad multibeam vendor format
0277_20071010_203040_raw.mb56.gz 115.24MB Simrad multibeam vendor format
0278_20071010_220348_raw.mb56.gz 119.29MB Simrad multibeam vendor format
0279_20071010_233730_raw.mb56.gz 129.06MB Simrad multibeam vendor format
0280_20071011_013429_raw.mb56.gz 119.08MB Simrad multibeam vendor format
0281_20071011_030756_raw.mb56.gz 122.83MB Simrad multibeam vendor format
0282_20071011_044924_raw.mb56.gz 107.83MB Simrad multibeam vendor format
0283_20071011_061420_raw.mb56.gz 134.13MB Simrad multibeam vendor format
0284_20071011_075942_raw.mb56.gz 113.75MB Simrad multibeam vendor format
0285_20071011_093035_raw.mb56.gz 125.81MB Simrad multibeam vendor format
0286_20071011_110811_raw.mb56.gz 98.40MB Simrad multibeam vendor format
0287_20071011_124241_raw.mb56.gz 96.71MB Simrad multibeam vendor format
0288_20071011_141815_raw.mb56.gz 53.40MB Simrad multibeam vendor format
0289_20071011_151220_raw.mb56.gz 5.51MB Simrad multibeam vendor format
0290_20071011_152217_raw.mb56.gz 20.66MB Simrad multibeam vendor format
0291_20071011_154626_raw.mb56.gz 74.12MB Simrad multibeam vendor format
0292_20071011_171058_raw.mb56.gz 67.72MB Simrad multibeam vendor format
0293_20071011_184402_raw.mb56.gz 93.24MB Simrad multibeam vendor format
0294_20071011_201221_raw.mb56.gz 19.34MB Simrad multibeam vendor format
0295_20071011_203945_raw.mb56.gz 45.66MB Simrad multibeam vendor format
0296_20071011_212531_raw.mb56.gz 52.02MB Simrad multibeam vendor format
0297_20071011_221932_raw.mb56.gz 51.01MB Simrad multibeam vendor format
0298_20071011_231119_raw.mb56.gz 62.73MB Simrad multibeam vendor format
0299_20071012_001351_raw.mb56.gz 67.05MB Simrad multibeam vendor format
0300_20071012_011849_raw.mb56.gz 32.35MB Simrad multibeam vendor format
0301_20071012_015006_raw.mb56.gz 20.90MB Simrad multibeam vendor format
0302_20071012_021653_raw.mb56.gz 3.88MB Simrad multibeam vendor format
0303_20071012_022555_raw.mb56.gz 4.10MB Simrad multibeam vendor format
0304_20071012_023548_raw.mb56.gz 3.09MB Simrad multibeam vendor format
0305_20071012_024459_raw.mb56.gz 2.37MB Simrad multibeam vendor format
0306_20071012_025459_raw.mb56.gz 3.61MB Simrad multibeam vendor format
0307_20071012_030926_raw.mb56.gz 77.65MB Simrad multibeam vendor format
0308_20071012_042429_raw.mb56.gz 18.46MB Simrad multibeam vendor format
0309_20071012_044222_raw.mb56.gz 2.59MB Simrad multibeam vendor format
0310_20071012_044724_raw.mb56.gz 2.29MB Simrad multibeam vendor format
0311_20071012_045645_raw.mb56.gz 1.98MB Simrad multibeam vendor format
0312_20071012_050347_raw.mb56.gz 2.58MB Simrad multibeam vendor format
0313_20071012_051132_raw.mb56.gz 2.66MB Simrad multibeam vendor format
0314_20071012_052325_raw.mb56.gz 45.05MB Simrad multibeam vendor format
0315_20071012_061333_raw.mb56.gz 60.90MB Simrad multibeam vendor format
0316_20071012_071318_raw.mb56.gz 51.72MB Simrad multibeam vendor format
0317_20071012_081155_raw.mb56.gz 61.68MB Simrad multibeam vendor format
0318_20071012_092344_raw.mb56.gz 59.13MB Simrad multibeam vendor format
0319_20071012_102835_raw.mb56.gz 67.57MB Simrad multibeam vendor format
0320_20071012_114215_raw.mb56.gz 56.82MB Simrad multibeam vendor format
0321_20071012_124034_raw.mb56.gz 28.59MB Simrad multibeam vendor format
0322_20071012_131740_raw.mb56.gz 55.92MB Simrad multibeam vendor format
0323_20071012_141745_raw.mb56.gz 13.64MB Simrad multibeam vendor format
0324_20071012_143335_raw.mb56.gz 3.31MB Simrad multibeam vendor format
0325_20071012_144435_raw.mb56.gz 3.30MB Simrad multibeam vendor format
0326_20071012_144827_raw.mb56.gz 11.96MB Simrad multibeam vendor format
0327_20071012_151615_raw.mb56.gz 28.58MB Simrad multibeam vendor format
0328_20071012_154758_raw.mb56.gz 70.89MB Simrad multibeam vendor format
0329_20071012_165716_raw.mb56.gz 67.60MB Simrad multibeam vendor format
0330_20071012_180517_raw.mb56.gz 77.52MB Simrad multibeam vendor format
0331_20071012_192030_raw.mb56.gz 69.70MB Simrad multibeam vendor format
0332_20071012_202840_raw.mb56.gz 75.71MB Simrad multibeam vendor format
0333_20071012_214235_raw.mb56.gz 72.28MB Simrad multibeam vendor format
0334_20071012_225318_raw.mb56.gz 66.61MB Simrad multibeam vendor format
0335_20071013_000011_raw.mb56.gz 71.69MB Simrad multibeam vendor format
0336_20071013_011203_raw.mb56.gz 70.25MB Simrad multibeam vendor format
0337_20071013_022622_raw.mb56.gz 76.55MB Simrad multibeam vendor format
0338_20071013_034523_raw.mb56.gz 67.68MB Simrad multibeam vendor format
0339_20071013_045608_raw.mb56.gz 56.54MB Simrad multibeam vendor format
0340_20071013_060914_raw.mb56.gz 5.64MB Simrad multibeam vendor format
0341_20071013_064048_raw.mb56.gz 9.88MB Simrad multibeam vendor format
0342_20071013_065009_raw.mb56.gz 4.85MB Simrad multibeam vendor format
0343_20071013_065541_raw.mb56.gz 6.38MB Simrad multibeam vendor format
0344_20071013_070435_raw.mb56.gz 4.58MB Simrad multibeam vendor format
0345_20071013_071040_raw.mb56.gz 4.46MB Simrad multibeam vendor format
0346_20071013_071700_raw.mb56.gz 2.49MB Simrad multibeam vendor format
0347_20071013_072950_raw.mb56.gz 32.25MB Simrad multibeam vendor format
0348_20071013_080235_raw.mb56.gz 24.00MB Simrad multibeam vendor format
0349_20071013_095151_raw.mb56.gz 22.76MB Simrad multibeam vendor format
0350_20071013_101039_raw.mb56.gz 28.07MB Simrad multibeam vendor format
0351_20071013_103853_raw.mb56.gz 6.78MB Simrad multibeam vendor format
0352_20071013_104523_raw.mb56.gz 7.34MB Simrad multibeam vendor format
0353_20071013_105622_raw.mb56.gz 6.88MB Simrad multibeam vendor format
0354_20071013_111004_raw.mb56.gz 7.58MB Simrad multibeam vendor format
0355_20071013_112232_raw.mb56.gz 11.34MB Simrad multibeam vendor format
0356_20071013_113749_raw.mb56.gz 24.84MB Simrad multibeam vendor format
0357_20071013_120009_raw.mb56.gz 22.23MB Simrad multibeam vendor format
0358_20071013_123608_raw.mb56.gz 21.86MB Simrad multibeam vendor format
0359_20071013_125546_raw.mb56.gz 20.57MB Simrad multibeam vendor format
0360_20071013_131522_raw.mb56.gz 20.39MB Simrad multibeam vendor format
0361_20071013_133407_raw.mb56.gz 21.07MB Simrad multibeam vendor format
0362_20071013_135412_raw.mb56.gz 18.72MB Simrad multibeam vendor format
0363_20071013_141054_raw.mb56.gz 21.85MB Simrad multibeam vendor format
0364_20071013_143030_raw.mb56.gz 18.21MB Simrad multibeam vendor format
0365_20071013_144845_raw.mb56.gz 22.03MB Simrad multibeam vendor format
0366_20071013_152457_raw.mb56.gz 34.86MB Simrad multibeam vendor format
0367_20071013_155513_raw.mb56.gz 32.58MB Simrad multibeam vendor format
0368_20071013_162452_raw.mb56.gz 32.26MB Simrad multibeam vendor format
0369_20071013_165829_raw.mb56.gz 28.19MB Simrad multibeam vendor format
0370_20071013_172424_raw.mb56.gz 26.02MB Simrad multibeam vendor format
0371_20071013_175107_raw.mb56.gz 19.62MB Simrad multibeam vendor format
0372_20071013_181003_raw.mb56.gz 8.25MB Simrad multibeam vendor format
0373_20071013_181919_raw.mb56.gz 5.54MB Simrad multibeam vendor format
0374_20071013_182716_raw.mb56.gz 10.36MB Simrad multibeam vendor format
0375_20071013_183727_raw.mb56.gz 10.01MB Simrad multibeam vendor format
0376_20071013_184654_raw.mb56.gz 12.29MB Simrad multibeam vendor format
0377_20071013_185912_raw.mb56.gz 13.86MB Simrad multibeam vendor format
0378_20071013_191252_raw.mb56.gz 17.37MB Simrad multibeam vendor format
0379_20071013_192929_raw.mb56.gz 16.83MB Simrad multibeam vendor format
0380_20071013_194517_raw.mb56.gz 21.49MB Simrad multibeam vendor format
0381_20071013_200430_raw.mb56.gz 19.72MB Simrad multibeam vendor format
0382_20071013_202331_raw.mb56.gz 22.78MB Simrad multibeam vendor format
0383_20071013_205925_raw.mb56.gz 1.65MB Simrad multibeam vendor format
0384_20071013_210717_raw.mb56.gz 59.16MB Simrad multibeam vendor format
0385_20071013_220347_raw.mb56.gz 57.08MB Simrad multibeam vendor format
0386_20071013_231308_raw.mb56.gz 36.00MB Simrad multibeam vendor format
0387_20071013_234706_raw.mb56.gz 31.57MB Simrad multibeam vendor format
0388_20071014_001658_raw.mb56.gz 34.21MB Simrad multibeam vendor format
0389_20071014_004744_raw.mb56.gz 36.58MB Simrad multibeam vendor format
0390_20071014_011657_raw.mb56.gz 37.19MB Simrad multibeam vendor format
0391_20071014_015027_raw.mb56.gz 34.47MB Simrad multibeam vendor format
0392_20071014_022218_raw.mb56.gz 37.43MB Simrad multibeam vendor format
0393_20071014_025455_raw.mb56.gz 35.24MB Simrad multibeam vendor format
0394_20071014_032415_raw.mb56.gz 33.84MB Simrad multibeam vendor format
0395_20071014_035336_raw.mb56.gz 34.01MB Simrad multibeam vendor format
0396_20071014_042311_raw.mb56.gz 34.74MB Simrad multibeam vendor format
0397_20071014_045354_raw.mb56.gz 34.17MB Simrad multibeam vendor format
0398_20071014_052524_raw.mb56.gz 29.92MB Simrad multibeam vendor format
0399_20071014_055345_raw.mb56.gz 38.13MB Simrad multibeam vendor format
0400_20071014_062814_raw.mb56.gz 31.16MB Simrad multibeam vendor format
0401_20071014_065734_raw.mb56.gz 36.95MB Simrad multibeam vendor format
0402_20071014_073124_raw.mb56.gz 22.48MB Simrad multibeam vendor format
0403_20071014_075954_raw.mb56.gz 3.37MB Simrad multibeam vendor format
0404_20071014_080718_raw.mb56.gz 5.64MB Simrad multibeam vendor format
0405_20071014_081550_raw.mb56.gz 1.58MB Simrad multibeam vendor format
0406_20071014_081946_raw.mb56.gz 4.79MB Simrad multibeam vendor format
0407_20071014_082839_raw.mb56.gz 2.55MB Simrad multibeam vendor format
0408_20071014_083351_raw.mb56.gz 4.36MB Simrad multibeam vendor format
0409_20071014_084650_raw.mb56.gz 33.35MB Simrad multibeam vendor format
0410_20071014_091525_raw.mb56.gz 24.28MB Simrad multibeam vendor format
0411_20071014_094414_raw.mb56.gz 16.21MB Simrad multibeam vendor format
0412_20071014_101901_raw.mb56.gz 17.83MB Simrad multibeam vendor format
0413_20071014_103346_raw.mb56.gz 17.46MB Simrad multibeam vendor format
0414_20071014_105437_raw.mb56.gz 20.40MB Simrad multibeam vendor format
0415_20071014_111142_raw.mb56.gz 22.78MB Simrad multibeam vendor format
0416_20071014_113856_raw.mb56.gz 22.42MB Simrad multibeam vendor format
0417_20071014_115854_raw.mb56.gz 22.34MB Simrad multibeam vendor format
0418_20071014_121809_raw.mb56.gz 22.63MB Simrad multibeam vendor format
0419_20071014_123738_raw.mb56.gz 21.54MB Simrad multibeam vendor format
0420_20071014_125724_raw.mb56.gz 20.34MB Simrad multibeam vendor format
0421_20071014_131801_raw.mb56.gz 18.37MB Simrad multibeam vendor format
0422_20071014_133648_raw.mb56.gz 20.62MB Simrad multibeam vendor format
0423_20071014_135814_raw.mb56.gz 15.98MB Simrad multibeam vendor format
0424_20071014_141454_raw.mb56.gz 18.82MB Simrad multibeam vendor format
0425_20071014_143354_raw.mb56.gz 16.61MB Simrad multibeam vendor format
0426_20071014_144837_raw.mb56.gz 16.14MB Simrad multibeam vendor format
0427_20071014_150836_raw.mb56.gz 9.78MB Simrad multibeam vendor format
0428_20071014_152051_raw.mb56.gz 11.58MB Simrad multibeam vendor format
0429_20071014_153817_raw.mb56.gz 8.14MB Simrad multibeam vendor format
0430_20071014_154754_raw.mb56.gz 10.78MB Simrad multibeam vendor format
0431_20071014_160123_raw.mb56.gz 6.27MB Simrad multibeam vendor format
0432_20071014_160914_raw.mb56.gz 3.99MB Simrad multibeam vendor format
0433_20071014_161531_raw.mb56.gz 2.73MB Simrad multibeam vendor format
0434_20071014_162009_raw.mb56.gz 1.42MB Simrad multibeam vendor format
0435_20071014_162415_raw.mb56.gz 2.07MB Simrad multibeam vendor format
0436_20071014_164811_raw.mb56.gz 1.23MB Simrad multibeam vendor format
0437_20071014_165155_raw.mb56.gz 1.52MB Simrad multibeam vendor format
0438_20071014_165923_raw.mb56.gz 1.57MB Simrad multibeam vendor format
0439_20071014_170600_raw.mb56.gz 2.04MB Simrad multibeam vendor format
0440_20071014_171029_raw.mb56.gz 2.42MB Simrad multibeam vendor format
0441_20071014_171643_raw.mb56.gz 3.06MB Simrad multibeam vendor format
0442_20071014_185435_raw.mb56.gz 66.28MB Simrad multibeam vendor format
0443_20071014_195505_raw.mb56.gz 80.39MB Simrad multibeam vendor format
0444_20071014_210556_raw.mb56.gz 90.63MB Simrad multibeam vendor format
0445_20071014_222612_raw.mb56.gz 83.58MB Simrad multibeam vendor format
0446_20071014_233738_raw.mb56.gz 88.81MB Simrad multibeam vendor format
0447_20071015_005308_raw.mb56.gz 86.27MB Simrad multibeam vendor format
0448_20071015_020633_raw.mb56.gz 92.92MB Simrad multibeam vendor format
0449_20071015_032613_raw.mb56.gz 98.33MB Simrad multibeam vendor format
0450_20071015_045026_raw.mb56.gz 114.42MB Simrad multibeam vendor format
0451_20071015_062902_raw.mb56.gz 107.61MB Simrad multibeam vendor format
0452_20071015_080156_raw.mb56.gz 123.58MB Simrad multibeam vendor format
0453_20071015_100639_raw.mb56.gz 47.57MB Simrad multibeam vendor format
0454_20071015_110918_raw.mb56.gz 43.31MB Simrad multibeam vendor format
0455_20071015_114819_raw.mb56.gz 31.12MB Simrad multibeam vendor format
0456_20071015_130538_raw.mb56.gz 67.71MB Simrad multibeam vendor format
0457_20071015_141720_raw.mb56.gz 9.78MB Simrad multibeam vendor format
0458_20071015_143005_raw.mb56.gz 108.98MB Simrad multibeam vendor format
0459_20071015_160344_raw.mb56.gz 91.02MB Simrad multibeam vendor format
0460_20071015_171854_raw.mb56.gz 104.25MB Simrad multibeam vendor format
0461_20071015_184351_raw.mb56.gz 95.14MB Simrad multibeam vendor format
0462_20071015_200217_raw.mb56.gz 89.01MB Simrad multibeam vendor format
0463_20071015_211435_raw.mb56.gz 75.69MB Simrad multibeam vendor format
0464_20071015_221711_raw.mb56.gz 88.87MB Simrad multibeam vendor format
0465_20071015_232859_raw.mb56.gz 83.01MB Simrad multibeam vendor format
0466_20071016_003616_raw.mb56.gz 96.04MB Simrad multibeam vendor format
0467_20071016_015405_raw.mb56.gz 93.70MB Simrad multibeam vendor format
0468_20071016_031033_raw.mb56.gz 114.57MB Simrad multibeam vendor format
0469_20071016_043503_raw.mb56.gz 98.75MB Simrad multibeam vendor format
0470_20071016_054715_raw.mb56.gz 73.35MB Simrad multibeam vendor format
0471_20071016_070014_raw.mb56.gz 23.89MB Simrad multibeam vendor format
0472_20071016_072520_raw.mb56.gz 27.03MB Simrad multibeam vendor format
0473_20071016_075306_raw.mb56.gz 31.57MB Simrad multibeam vendor format
0474_20071016_082637_raw.mb56.gz 89.52MB Simrad multibeam vendor format
9514_20070909_234332_raw.mb56.gz 58.68MB Simrad multibeam vendor format
9515_20070910_004953_raw.mb56.gz 55.52MB Simrad multibeam vendor format
9516_20070910_015415_raw.mb56.gz 55.75MB Simrad multibeam vendor format
9517_20070910_025807_raw.mb56.gz 55.30MB Simrad multibeam vendor format
9518_20070910_035909_raw.mb56.gz 56.22MB Simrad multibeam vendor format
9519_20070910_050926_raw.mb56.gz 59.09MB Simrad multibeam vendor format
9520_20070910_061042_raw.mb56.gz 61.16MB Simrad multibeam vendor format
9521_20070910_231820_raw.mb56.gz 55.89MB Simrad multibeam vendor format
9522_20070911_002134_raw.mb56.gz 56.91MB Simrad multibeam vendor format
9523_20070911_012600_raw.mb56.gz 55.59MB Simrad multibeam vendor format
9524_20070911_022850_raw.mb56.gz 56.85MB Simrad multibeam vendor format
9525_20070911_033542_raw.mb56.gz 56.28MB Simrad multibeam vendor format
9526_20070911_044703_raw.mb56.gz 62.39MB Simrad multibeam vendor format
9527_20070911_055440_raw.mb56.gz 61.26MB Simrad multibeam vendor format
9528_20070911_065717_raw.mb56.gz 60.59MB Simrad multibeam vendor format
9529_20070911_112944_raw.mb56.gz 40.67MB Simrad multibeam vendor format
9530_20070911_121352_raw.mb56.gz 35.69MB Simrad multibeam vendor format
9531_20070911_125512_raw.mb56.gz 38.57MB Simrad multibeam vendor format
9532_20070911_133743_raw.mb56.gz 37.41MB Simrad multibeam vendor format
9533_20070911_141842_raw.mb56.gz 39.06MB Simrad multibeam vendor format
9534_20070911_151015_raw.mb56.gz 20.35MB Simrad multibeam vendor format
9535_20070911_153303_raw.mb56.gz 22.45MB Simrad multibeam vendor format
9536_20070911_192139_raw.mb56.gz 58.97MB Simrad multibeam vendor format
9537_20070911_202711_raw.mb56.gz 58.97MB Simrad multibeam vendor format
9538_20070911_213453_raw.mb56.gz 40.49MB Simrad multibeam vendor format
9539_20070911_221642_raw.mb56.gz 17.02MB Simrad multibeam vendor format
9540_20070911_223523_raw.mb56.gz 15.96MB Simrad multibeam vendor format
9541_20070911_233433_raw.mb56.gz 36.18MB Simrad multibeam vendor format
9542_20070912_001316_raw.mb56.gz 35.34MB Simrad multibeam vendor format
9543_20070912_005225_raw.mb56.gz 37.83MB Simrad multibeam vendor format
9544_20070912_013512_raw.mb56.gz 40.88MB Simrad multibeam vendor format
9545_20070912_022007_raw.mb56.gz 53.59MB Simrad multibeam vendor format
9546_20070912_032341_raw.mb56.gz 54.38MB Simrad multibeam vendor format
9547_20070912_042240_raw.mb56.gz 37.55MB Simrad multibeam vendor format
9548_20070912_051225_raw.mb56.gz 57.83MB Simrad multibeam vendor format
9549_20070912_061454_raw.mb56.gz 56.05MB Simrad multibeam vendor format
9550_20070912_072446_raw.mb56.gz 24.46MB Simrad multibeam vendor format
9551_20070912_075331_raw.mb56.gz 22.19MB Simrad multibeam vendor format
9552_20070912_082506_raw.mb56.gz 10.40MB Simrad multibeam vendor format
9553_20070912_092948_raw.mb56.gz 22.61MB Simrad multibeam vendor format
9554_20070912_100113_raw.mb56.gz 21.60MB Simrad multibeam vendor format
9555_20070912_105613_raw.mb56.gz 5.14MB Simrad multibeam vendor format
9556_20070912_110338_raw.mb56.gz 4.99MB Simrad multibeam vendor format
9557_20070912_111030_raw.mb56.gz 5.19MB Simrad multibeam vendor format
9558_20070912_111931_raw.mb56.gz 5.97MB Simrad multibeam vendor format
9559_20070912_112846_raw.mb56.gz 5.22MB Simrad multibeam vendor format
9560_20070912_113820_raw.mb56.gz 5.62MB Simrad multibeam vendor format
9561_20070912_114851_raw.mb56.gz 5.38MB Simrad multibeam vendor format
9562_20070912_115824_raw.mb56.gz 5.81MB Simrad multibeam vendor format
9563_20070912_120552_raw.mb56.gz 5.31MB Simrad multibeam vendor format
9564_20070912_121538_raw.mb56.gz 7.62MB Simrad multibeam vendor format
9565_20070912_122730_raw.mb56.gz 44.31MB Simrad multibeam vendor format
9566_20070912_133752_raw.mb56.gz 7.28MB Simrad multibeam vendor format
9567_20070912_134525_raw.mb56.gz 6.99MB Simrad multibeam vendor format
9568_20070912_140047_raw.mb56.gz 41.10MB Simrad multibeam vendor format
9569_20070912_144821_raw.mb56.gz 38.93MB Simrad multibeam vendor format
9570_20070912_152358_raw.mb56.gz 22.69MB Simrad multibeam vendor format
9571_20070912_154739_raw.mb56.gz 29.65MB Simrad multibeam vendor format
9572_20070912_161809_raw.mb56.gz 9.00MB Simrad multibeam vendor format
9573_20070912_162908_raw.mb56.gz 8.92MB Simrad multibeam vendor format
9574_20070912_163811_raw.mb56.gz 42.58MB Simrad multibeam vendor format
9575_20070912_172044_raw.mb56.gz 28.88MB Simrad multibeam vendor format
9576_20070912_175148_raw.mb56.gz 17.36MB Simrad multibeam vendor format
9577_20070912_181123_raw.mb56.gz 18.63MB Simrad multibeam vendor format
9578_20070912_183150_raw.mb56.gz 103.01MB Simrad multibeam vendor format
9579_20070912_232342_raw.mb56.gz 39.08MB Simrad multibeam vendor format
9580_20070913_000541_raw.mb56.gz 39.94MB Simrad multibeam vendor format
9581_20070913_004905_raw.mb56.gz 38.60MB Simrad multibeam vendor format
9582_20070913_012958_raw.mb56.gz 38.67MB Simrad multibeam vendor format
9583_20070913_021126_raw.mb56.gz 37.71MB Simrad multibeam vendor format
9584_20070913_025012_raw.mb56.gz 30.40MB Simrad multibeam vendor format
9585_20070913_033442_raw.mb56.gz 7.05MB Simrad multibeam vendor format
9586_20070913_034404_raw.mb56.gz 7.68MB Simrad multibeam vendor format
9587_20070913_035431_raw.mb56.gz 15.04MB Simrad multibeam vendor format
9588_20070913_041242_raw.mb56.gz 15.30MB Simrad multibeam vendor format
9589_20070913_043118_raw.mb56.gz 15.87MB Simrad multibeam vendor format
9590_20070913_045028_raw.mb56.gz 17.77MB Simrad multibeam vendor format
9591_20070913_051132_raw.mb56.gz 17.33MB Simrad multibeam vendor format
9592_20070913_053215_raw.mb56.gz 19.35MB Simrad multibeam vendor format
9593_20070913_055705_raw.mb56.gz 40.43MB Simrad multibeam vendor format
9594_20070913_063526_raw.mb56.gz 31.94MB Simrad multibeam vendor format
9595_20070913_070800_raw.mb56.gz 30.14MB Simrad multibeam vendor format
9596_20070913_073909_raw.mb56.gz 65.04MB Simrad multibeam vendor format
9597_20070913_090044_raw.mb56.gz 59.36MB Simrad multibeam vendor format
9598_20070913_100658_raw.mb56.gz 54.69MB Simrad multibeam vendor format
9599_20070913_111536_raw.mb56.gz 26.51MB Simrad multibeam vendor format
9600_20070913_114752_raw.mb56.gz 26.11MB Simrad multibeam vendor format
9601_20070913_122023_raw.mb56.gz 25.94MB Simrad multibeam vendor format
9602_20070913_125300_raw.mb56.gz 24.29MB Simrad multibeam vendor format
9603_20070913_132357_raw.mb56.gz 26.25MB Simrad multibeam vendor format
9604_20070913_135828_raw.mb56.gz 20.31MB Simrad multibeam vendor format
9605_20070913_142929_raw.mb56.gz 12.44MB Simrad multibeam vendor format
9606_20070913_144631_raw.mb56.gz 7.48MB Simrad multibeam vendor format
9607_20070913_150113_raw.mb56.gz 17.01MB Simrad multibeam vendor format
9608_20070913_152404_raw.mb56.gz 20.65MB Simrad multibeam vendor format
9609_20070913_154759_raw.mb56.gz 5.74MB Simrad multibeam vendor format
9610_20070913_155856_raw.mb56.gz 4.33MB Simrad multibeam vendor format
9611_20070913_161409_raw.mb56.gz 9.44MB Simrad multibeam vendor format
9612_20070913_162956_raw.mb56.gz 32.32MB Simrad multibeam vendor format
9613_20070913_170626_raw.mb56.gz 11.66MB Simrad multibeam vendor format
9614_20070913_172145_raw.mb56.gz 12.96MB Simrad multibeam vendor format
9615_20070913_173718_raw.mb56.gz 3.21MB Simrad multibeam vendor format
9616_20070913_174449_raw.mb56.gz 52.78MB Simrad multibeam vendor format
9617_20070913_183934_raw.mb56.gz 12.10MB Simrad multibeam vendor format
9618_20070913_185835_raw.mb56.gz 21.94MB Simrad multibeam vendor format
9619_20070913_193308_raw.mb56.gz 12.03MB Simrad multibeam vendor format
9620_20070913_195000_raw.mb56.gz 10.01MB Simrad multibeam vendor format
9621_20070913_200235_raw.mb56.gz 7.38MB Simrad multibeam vendor format
9622_20070913_212749_raw.mb56.gz 51.03MB Simrad multibeam vendor format
9623_20070913_223237_raw.mb56.gz 44.51MB Simrad multibeam vendor format
9624_20070913_234804_raw.mb56.gz 9.03MB Simrad multibeam vendor format
9625_20070914_014046_raw.mb56.gz 61.94MB Simrad multibeam vendor format
9626_20070914_024519_raw.mb56.gz 66.04MB Simrad multibeam vendor format
9627_20070914_053434_raw.mb56.gz 61.18MB Simrad multibeam vendor format
9628_20070914_063911_raw.mb56.gz 62.31MB Simrad multibeam vendor format
9629_20070914_074241_raw.mb56.gz 63.04MB Simrad multibeam vendor format
9630_20070914_085253_raw.mb56.gz 19.61MB Simrad multibeam vendor format
9631_20070914_092436_raw.mb56.gz 14.81MB Simrad multibeam vendor format
9632_20070914_094637_raw.mb56.gz 13.60MB Simrad multibeam vendor format
9633_20070914_100242_raw.mb56.gz 9.43MB Simrad multibeam vendor format
9634_20070914_102440_raw.mb56.gz 2.41MB Simrad multibeam vendor format
9635_20070914_104357_raw.mb56.gz 52.08MB Simrad multibeam vendor format
9636_20070914_113806_raw.mb56.gz 3.74MB Simrad multibeam vendor format
9637_20070914_115034_raw.mb56.gz 7.28MB Simrad multibeam vendor format
9638_20070914_120223_raw.mb56.gz 7.37MB Simrad multibeam vendor format
9639_20070914_121813_raw.mb56.gz 45.59MB Simrad multibeam vendor format
9640_20070914_132946_raw.mb56.gz 26.88MB Simrad multibeam vendor format
9641_20070914_135732_raw.mb56.gz 23.89MB Simrad multibeam vendor format
9642_20070914_144004_raw.mb56.gz 14.22MB Simrad multibeam vendor format
9643_20070914_154203_raw.mb56.gz 6.69MB Simrad multibeam vendor format
9644_20070914_155514_raw.mb56.gz 6.68MB Simrad multibeam vendor format
9645_20070914_161015_raw.mb56.gz 6.55MB Simrad multibeam vendor format
9646_20070914_162219_raw.mb56.gz 6.63MB Simrad multibeam vendor format
9647_20070914_163309_raw.mb56.gz 36.56MB Simrad multibeam vendor format
9648_20070914_171731_raw.mb56.gz 35.71MB Simrad multibeam vendor format
9649_20070914_175944_raw.mb56.gz 31.13MB Simrad multibeam vendor format
9650_20070914_184729_raw.mb56.gz 13.18MB Simrad multibeam vendor format
9651_20070914_191022_raw.mb56.gz 49.68MB Simrad multibeam vendor format
9652_20070914_202000_raw.mb56.gz 62.62MB Simrad multibeam vendor format
9653_20070914_213556_raw.mb56.gz 9.60MB Simrad multibeam vendor format
9654_20070914_214851_raw.mb56.gz 5.23MB Simrad multibeam vendor format
9655_20070914_215800_raw.mb56.gz 1.57MB Simrad multibeam vendor format
9656_20070914_221023_raw.mb56.gz 10.66MB Simrad multibeam vendor format
9657_20070914_222250_raw.mb56.gz 8.30MB Simrad multibeam vendor format
9658_20070914_223418_raw.mb56.gz 7.78MB Simrad multibeam vendor format
9659_20070914_224459_raw.mb56.gz 5.27MB Simrad multibeam vendor format
9660_20070914_230643_raw.mb56.gz 17.17MB Simrad multibeam vendor format
9661_20070914_232813_raw.mb56.gz 16.14MB Simrad multibeam vendor format
9662_20070914_235305_raw.mb56.gz 7.19MB Simrad multibeam vendor format
9663_20070915_001130_raw.mb56.gz 14.51MB Simrad multibeam vendor format
9664_20070915_003630_raw.mb56.gz 4.20MB Simrad multibeam vendor format
9665_20070915_004602_raw.mb56.gz 3.33MB Simrad multibeam vendor format
9666_20070915_005135_raw.mb56.gz 6.29MB Simrad multibeam vendor format
9667_20070915_010100_raw.mb56.gz 9.81MB Simrad multibeam vendor format
9668_20070915_013259_raw.mb56.gz 1.34MB Simrad multibeam vendor format
9669_20070915_023259_raw.mb56.gz 2.23MB Simrad multibeam vendor format
9670_20070915_025525_raw.mb56.gz 2.45MB Simrad multibeam vendor format
9671_20070915_030250_raw.mb56.gz 2.98MB Simrad multibeam vendor format
9672_20070915_031219_raw.mb56.gz 8.88MB Simrad multibeam vendor format
9673_20070915_032417_raw.mb56.gz 8.91MB Simrad multibeam vendor format
9674_20070915_034018_raw.mb56.gz 3.74MB Simrad multibeam vendor format
9675_20070915_034908_raw.mb56.gz 3.43MB Simrad multibeam vendor format
9676_20070915_040040_raw.mb56.gz 3.79MB Simrad multibeam vendor format
9677_20070915_040524_raw.mb56.gz 26.35MB Simrad multibeam vendor format
9678_20070915_043510_raw.mb56.gz 24.22MB Simrad multibeam vendor format
9679_20070915_052837_raw.mb56.gz 6.67MB Simrad multibeam vendor format
9680_20070915_053912_raw.mb56.gz 3.12MB Simrad multibeam vendor format
9681_20070915_054657_raw.mb56.gz 1.65MB Simrad multibeam vendor format
9682_20070915_055239_raw.mb56.gz 35.95MB Simrad multibeam vendor format
9683_20070915_094757_raw.mb56.gz 3.26MB Simrad multibeam vendor format
9684_20070915_095702_raw.mb56.gz 13.88MB Simrad multibeam vendor format
9685_20070915_101346_raw.mb56.gz 2.91MB Simrad multibeam vendor format
9686_20070915_112454_raw.mb56.gz 15.53MB Simrad multibeam vendor format
9687_20070915_115035_raw.mb56.gz 13.89MB Simrad multibeam vendor format
9688_20070915_121057_raw.mb56.gz 3.08MB Simrad multibeam vendor format
9689_20070915_121908_raw.mb56.gz 4.05MB Simrad multibeam vendor format
9690_20070915_122730_raw.mb56.gz 4.76MB Simrad multibeam vendor format
9691_20070915_130309_raw.mb56.gz 11.90MB Simrad multibeam vendor format
9692_20070915_132415_raw.mb56.gz 22.90MB Simrad multibeam vendor format
9693_20070915_135435_raw.mb56.gz 6.22MB Simrad multibeam vendor format
9694_20070915_143356_raw.mb56.gz 5.18MB Simrad multibeam vendor format
9695_20070915_145505_raw.mb56.gz 8.44MB Simrad multibeam vendor format
9696_20070915_151047_raw.mb56.gz 9.54MB Simrad multibeam vendor format
9697_20070915_152809_raw.mb56.gz 8.65MB Simrad multibeam vendor format
9698_20070915_154549_raw.mb56.gz 5.54MB Simrad multibeam vendor format
9699_20070915_155532_raw.mb56.gz 5.92MB Simrad multibeam vendor format
9700_20070915_160533_raw.mb56.gz 5.20MB Simrad multibeam vendor format
9701_20070915_161444_raw.mb56.gz 5.89MB Simrad multibeam vendor format
9702_20070915_162511_raw.mb56.gz 7.39MB Simrad multibeam vendor format
9703_20070915_163618_raw.mb56.gz 6.11MB Simrad multibeam vendor format
9704_20070915_164641_raw.mb56.gz 7.33MB Simrad multibeam vendor format
9705_20070915_165723_raw.mb56.gz 7.28MB Simrad multibeam vendor format
9706_20070915_201059_raw.mb56.gz 10.76MB Simrad multibeam vendor format
9707_20070915_203431_raw.mb56.gz 62.53MB Simrad multibeam vendor format
9708_20070915_213812_raw.mb56.gz 38.56MB Simrad multibeam vendor format
9709_20070915_222038_raw.mb56.gz 21.03MB Simrad multibeam vendor format
9710_20070915_224452_raw.mb56.gz 17.42MB Simrad multibeam vendor format
9711_20070915_230619_raw.mb56.gz 16.74MB Simrad multibeam vendor format
9712_20070915_232642_raw.mb56.gz 13.65MB Simrad multibeam vendor format
9713_20070915_235121_raw.mb56.gz 25.11MB Simrad multibeam vendor format
9714_20070916_001808_raw.mb56.gz 23.33MB Simrad multibeam vendor format
9715_20070916_004507_raw.mb56.gz 20.07MB Simrad multibeam vendor format
9716_20070916_010650_raw.mb56.gz 0.66MB Simrad multibeam vendor format
9717_20070916_010748_raw.mb56.gz 18.07MB Simrad multibeam vendor format
9718_20070916_012907_raw.mb56.gz 11.71MB Simrad multibeam vendor format
9719_20070916_014556_raw.mb56.gz 8.50MB Simrad multibeam vendor format
9720_20070916_015639_raw.mb56.gz 6.42MB Simrad multibeam vendor format
9721_20070916_020827_raw.mb56.gz 3.49MB Simrad multibeam vendor format
9722_20070916_021443_raw.mb56.gz 1.60MB Simrad multibeam vendor format
9723_20070916_022201_raw.mb56.gz 2.24MB Simrad multibeam vendor format
9724_20070916_024906_raw.mb56.gz 18.21MB Simrad multibeam vendor format
9725_20070916_031454_raw.mb56.gz 20.28MB Simrad multibeam vendor format
9726_20070916_034031_raw.mb56.gz 20.89MB Simrad multibeam vendor format
9727_20070916_041247_raw.mb56.gz 26.01MB Simrad multibeam vendor format
9728_20070916_044522_raw.mb56.gz 24.98MB Simrad multibeam vendor format
9729_20070916_051628_raw.mb56.gz 24.98MB Simrad multibeam vendor format
9730_20070916_054756_raw.mb56.gz 19.17MB Simrad multibeam vendor format
9731_20070916_061437_raw.mb56.gz 20.62MB Simrad multibeam vendor format
9732_20070916_071823_raw.mb56.gz 37.66MB Simrad multibeam vendor format
9733_20070916_081736_raw.mb56.gz 5.56MB Simrad multibeam vendor format
9734_20070916_082323_raw.mb56.gz 5.69MB Simrad multibeam vendor format
9735_20070916_082824_raw.mb56.gz 7.55MB Simrad multibeam vendor format
9736_20070916_083529_raw.mb56.gz 8.88MB Simrad multibeam vendor format
9737_20070916_084407_raw.mb56.gz 10.01MB Simrad multibeam vendor format
9738_20070916_085417_raw.mb56.gz 10.55MB Simrad multibeam vendor format
9739_20070916_090453_raw.mb56.gz 9.59MB Simrad multibeam vendor format
9740_20070916_091439_raw.mb56.gz 13.55MB Simrad multibeam vendor format
9741_20070916_092741_raw.mb56.gz 10.72MB Simrad multibeam vendor format
9742_20070916_093948_raw.mb56.gz 22.73MB Simrad multibeam vendor format
9743_20070916_100046_raw.mb56.gz 6.37MB Simrad multibeam vendor format
9744_20070916_101615_raw.mb56.gz 20.35MB Simrad multibeam vendor format
9745_20070916_103510_raw.mb56.gz 19.70MB Simrad multibeam vendor format
9746_20070916_105231_raw.mb56.gz 21.65MB Simrad multibeam vendor format
9747_20070916_111313_raw.mb56.gz 19.24MB Simrad multibeam vendor format
9748_20070916_113300_raw.mb56.gz 17.10MB Simrad multibeam vendor format
9749_20070916_114917_raw.mb56.gz 35.68MB Simrad multibeam vendor format
9750_20070916_122415_raw.mb56.gz 50.93MB Simrad multibeam vendor format
9751_20070916_131106_raw.mb56.gz 41.38MB Simrad multibeam vendor format
9752_20070916_135219_raw.mb56.gz 41.15MB Simrad multibeam vendor format
9753_20070916_143650_raw.mb56.gz 30.97MB Simrad multibeam vendor format
9754_20070916_150745_raw.mb56.gz 11.75MB Simrad multibeam vendor format
9755_20070916_152401_raw.mb56.gz 9.01MB Simrad multibeam vendor format
9756_20070916_153452_raw.mb56.gz 4.17MB Simrad multibeam vendor format
9757_20070916_154158_raw.mb56.gz 3.64MB Simrad multibeam vendor format
9758_20070916_155750_raw.mb56.gz 19.60MB Simrad multibeam vendor format
9759_20070916_161247_raw.mb56.gz 21.18MB Simrad multibeam vendor format
9760_20070916_162958_raw.mb56.gz 18.57MB Simrad multibeam vendor format
9761_20070916_164616_raw.mb56.gz 14.73MB Simrad multibeam vendor format
9762_20070916_165847_raw.mb56.gz 11.25MB Simrad multibeam vendor format
9763_20070916_170855_raw.mb56.gz 10.56MB Simrad multibeam vendor format
9764_20070916_171916_raw.mb56.gz 6.99MB Simrad multibeam vendor format
9765_20070916_173953_raw.mb56.gz 52.48MB Simrad multibeam vendor format
9766_20070916_181902_raw.mb56.gz 17.32MB Simrad multibeam vendor format
9767_20070916_183130_raw.mb56.gz 9.53MB Simrad multibeam vendor format
9768_20070916_184133_raw.mb56.gz 5.41MB Simrad multibeam vendor format
9769_20070916_185016_raw.mb56.gz 3.50MB Simrad multibeam vendor format
9770_20070916_190647_raw.mb56.gz 10.38MB Simrad multibeam vendor format
9771_20070916_191847_raw.mb56.gz 4.36MB Simrad multibeam vendor format
9772_20070916_192501_raw.mb56.gz 5.08MB Simrad multibeam vendor format
9773_20070916_193335_raw.mb56.gz 7.87MB Simrad multibeam vendor format
9774_20070916_200618_raw.mb56.gz 28.29MB Simrad multibeam vendor format
9775_20070916_202857_raw.mb56.gz 25.60MB Simrad multibeam vendor format
9776_20070916_204755_raw.mb56.gz 25.98MB Simrad multibeam vendor format
9777_20070916_210843_raw.mb56.gz 25.31MB Simrad multibeam vendor format
9778_20070916_212733_raw.mb56.gz 27.79MB Simrad multibeam vendor format
9779_20070916_214840_raw.mb56.gz 26.43MB Simrad multibeam vendor format
9780_20070916_220901_raw.mb56.gz 26.76MB Simrad multibeam vendor format
9781_20070916_222927_raw.mb56.gz 47.48MB Simrad multibeam vendor format
9782_20070916_230604_raw.mb56.gz 49.02MB Simrad multibeam vendor format
9783_20070916_234902_raw.mb56.gz 41.69MB Simrad multibeam vendor format
9784_20070917_002521_raw.mb56.gz 48.29MB Simrad multibeam vendor format
9785_20070917_010708_raw.mb56.gz 48.14MB Simrad multibeam vendor format
9786_20070917_014439_raw.mb56.gz 47.42MB Simrad multibeam vendor format
9787_20070917_022415_raw.mb56.gz 48.35MB Simrad multibeam vendor format
9788_20070917_030137_raw.mb56.gz 41.38MB Simrad multibeam vendor format
9789_20070917_034141_raw.mb56.gz 1.17MB Simrad multibeam vendor format
9790_20070917_035923_raw.mb56.gz 17.20MB Simrad multibeam vendor format
9791_20070917_041246_raw.mb56.gz 13.93MB Simrad multibeam vendor format
9792_20070917_042355_raw.mb56.gz 13.51MB Simrad multibeam vendor format
9793_20070917_043449_raw.mb56.gz 15.25MB Simrad multibeam vendor format
9794_20070917_044643_raw.mb56.gz 15.50MB Simrad multibeam vendor format
9795_20070917_045838_raw.mb56.gz 13.58MB Simrad multibeam vendor format
9796_20070917_052211_raw.mb56.gz 14.90MB Simrad multibeam vendor format
9797_20070917_053359_raw.mb56.gz 22.15MB Simrad multibeam vendor format
9798_20070917_060440_raw.mb56.gz 0.67MB Simrad multibeam vendor format
9799_20070917_061111_raw.mb56.gz 1.72MB Simrad multibeam vendor format
9800_20070917_063058_raw.mb56.gz 31.98MB Simrad multibeam vendor format
9802_20070917_065759_raw.mb56.gz 21.40MB Simrad multibeam vendor format
9803_20070917_071611_raw.mb56.gz 21.76MB Simrad multibeam vendor format
9804_20070917_074140_raw.mb56.gz 9.87MB Simrad multibeam vendor format
9805_20070917_075210_raw.mb56.gz 9.87MB Simrad multibeam vendor format
9806_20070917_080019_raw.mb56.gz 3.37MB Simrad multibeam vendor format
9807_20070917_080755_raw.mb56.gz 16.32MB Simrad multibeam vendor format
9808_20070917_083136_raw.mb56.gz 26.10MB Simrad multibeam vendor format
9809_20070917_090942_raw.mb56.gz 6.32MB Simrad multibeam vendor format
9810_20070917_093552_raw.mb56.gz 17.61MB Simrad multibeam vendor format
9811_20070917_095036_raw.mb56.gz 21.09MB Simrad multibeam vendor format
9812_20070917_100708_raw.mb56.gz 18.92MB Simrad multibeam vendor format
9813_20070917_102158_raw.mb56.gz 19.60MB Simrad multibeam vendor format
9814_20070917_103712_raw.mb56.gz 7.20MB Simrad multibeam vendor format
9815_20070917_104235_raw.mb56.gz 413.9KB Simrad multibeam vendor format
9816_20070917_104539_raw.mb56.gz 12.47MB Simrad multibeam vendor format
9817_20070917_105952_raw.mb56.gz 9.21MB Simrad multibeam vendor format
9818_20070917_110722_raw.mb56.gz 8.14MB Simrad multibeam vendor format
9819_20070917_111337_raw.mb56.gz 8.40MB Simrad multibeam vendor format
9820_20070917_112156_raw.mb56.gz 7.66MB Simrad multibeam vendor format
9821_20070917_113155_raw.mb56.gz 15.38MB Simrad multibeam vendor format
9822_20070917_114513_raw.mb56.gz 1.64MB Simrad multibeam vendor format
9823_20070917_115001_raw.mb56.gz 3.72MB Simrad multibeam vendor format
9824_20070917_115720_raw.mb56.gz 4.96MB Simrad multibeam vendor format
9825_20070917_120438_raw.mb56.gz 5.32MB Simrad multibeam vendor format
9826_20070917_121722_raw.mb56.gz 31.04MB Simrad multibeam vendor format
9827_20070917_124602_raw.mb56.gz 8.74MB Simrad multibeam vendor format
9828_20070917_125447_raw.mb56.gz 7.15MB Simrad multibeam vendor format
9829_20070917_130238_raw.mb56.gz 7.89MB Simrad multibeam vendor format
9830_20070917_131050_raw.mb56.gz 6.86MB Simrad multibeam vendor format
9831_20070917_131903_raw.mb56.gz 7.53MB Simrad multibeam vendor format
9832_20070917_132759_raw.mb56.gz 6.47MB Simrad multibeam vendor format
9833_20070917_133700_raw.mb56.gz 18.26MB Simrad multibeam vendor format
9834_20070917_135418_raw.mb56.gz 3.61MB Simrad multibeam vendor format
9835_20070917_140003_raw.mb56.gz 6.25MB Simrad multibeam vendor format
9836_20070917_140735_raw.mb56.gz 3.31MB Simrad multibeam vendor format
9837_20070917_141215_raw.mb56.gz 2.25MB Simrad multibeam vendor format
9838_20070917_142057_raw.mb56.gz 2.56MB Simrad multibeam vendor format
9839_20070917_151244_raw.mb56.gz 8.37MB Simrad multibeam vendor format
9840_20070917_153541_raw.mb56.gz 95.97MB Simrad multibeam vendor format
9841_20070917_164731_raw.mb56.gz 36.96MB Simrad multibeam vendor format
9842_20070918_211240_raw.mb56.gz 12.11MB Simrad multibeam vendor format
9843_20070918_212416_raw.mb56.gz 10.40MB Simrad multibeam vendor format
9844_20070918_213445_raw.mb56.gz 11.95MB Simrad multibeam vendor format
9845_20070918_214615_raw.mb56.gz 10.04MB Simrad multibeam vendor format
9846_20070918_215611_raw.mb56.gz 12.02MB Simrad multibeam vendor format
9847_20070918_220732_raw.mb56.gz 10.59MB Simrad multibeam vendor format
9848_20070918_221800_raw.mb56.gz 11.81MB Simrad multibeam vendor format
9849_20070918_222914_raw.mb56.gz 10.68MB Simrad multibeam vendor format
9850_20070918_224001_raw.mb56.gz 12.47MB Simrad multibeam vendor format
9851_20070918_225347_raw.mb56.gz 11.97MB Simrad multibeam vendor format
9852_20070918_231251_raw.mb56.gz 8.60MB Simrad multibeam vendor format
9853_20070918_232837_raw.mb56.gz 10.07MB Simrad multibeam vendor format
9854_20070918_233911_raw.mb56.gz 4.33MB Simrad multibeam vendor format
9855_20070918_235011_raw.mb56.gz 6.11MB Simrad multibeam vendor format
9856_20070919_002656_raw.mb56.gz 35.53MB Simrad multibeam vendor format
9857_20070919_005243_raw.mb56.gz 28.96MB Simrad multibeam vendor format
9858_20070919_011346_raw.mb56.gz 32.41MB Simrad multibeam vendor format
9859_20070919_013710_raw.mb56.gz 26.70MB Simrad multibeam vendor format
9860_20070919_015812_raw.mb56.gz 31.91MB Simrad multibeam vendor format
9861_20070919_022222_raw.mb56.gz 27.09MB Simrad multibeam vendor format
9862_20070919_024250_raw.mb56.gz 28.97MB Simrad multibeam vendor format
9863_20070919_030352_raw.mb56.gz 25.55MB Simrad multibeam vendor format
9864_20070919_032319_raw.mb56.gz 28.19MB Simrad multibeam vendor format
9865_20070919_034251_raw.mb56.gz 27.18MB Simrad multibeam vendor format
9866_20070919_040204_raw.mb56.gz 27.40MB Simrad multibeam vendor format
9867_20070919_042024_raw.mb56.gz 7.30MB Simrad multibeam vendor format
9868_20070919_043640_raw.mb56.gz 7.38MB Simrad multibeam vendor format
9869_20070919_044436_raw.mb56.gz 7.05MB Simrad multibeam vendor format
9870_20070919_045132_raw.mb56.gz 7.03MB Simrad multibeam vendor format
9871_20070919_045850_raw.mb56.gz 7.24MB Simrad multibeam vendor format
9872_20070919_050557_raw.mb56.gz 5.64MB Simrad multibeam vendor format
9873_20070919_051152_raw.mb56.gz 8.12MB Simrad multibeam vendor format
9874_20070919_051935_raw.mb56.gz 4.49MB Simrad multibeam vendor format
9875_20070919_052402_raw.mb56.gz 6.66MB Simrad multibeam vendor format
9876_20070919_053047_raw.mb56.gz 3.74MB Simrad multibeam vendor format
9877_20070919_053449_raw.mb56.gz 10.01MB Simrad multibeam vendor format
9878_20070919_060219_raw.mb56.gz 23.38MB Simrad multibeam vendor format
9879_20070919_061834_raw.mb56.gz 27.67MB Simrad multibeam vendor format
9880_20070919_064423_raw.mb56.gz 25.47MB Simrad multibeam vendor format
9881_20070919_070124_raw.mb56.gz 26.81MB Simrad multibeam vendor format
9882_20070919_072136_raw.mb56.gz 24.17MB Simrad multibeam vendor format
9883_20070919_074418_raw.mb56.gz 26.62MB Simrad multibeam vendor format
9884_20070919_080331_raw.mb56.gz 21.72MB Simrad multibeam vendor format
9885_20070919_082004_raw.mb56.gz 25.61MB Simrad multibeam vendor format
9886_20070919_083736_raw.mb56.gz 20.84MB Simrad multibeam vendor format
9887_20070919_085401_raw.mb56.gz 22.30MB Simrad multibeam vendor format
9888_20070919_090957_raw.mb56.gz 22.39MB Simrad multibeam vendor format
9889_20070919_092615_raw.mb56.gz 28.21MB Simrad multibeam vendor format
9890_20070919_094735_raw.mb56.gz 19.43MB Simrad multibeam vendor format
9891_20070919_100010_raw.mb56.gz 17.04MB Simrad multibeam vendor format
9893_20070919_101209_raw.mb56.gz 13.84MB Simrad multibeam vendor format
9894_20070919_102216_raw.mb56.gz 15.81MB Simrad multibeam vendor format
9895_20070919_103420_raw.mb56.gz 15.61MB Simrad multibeam vendor format
9896_20070919_104522_raw.mb56.gz 13.36MB Simrad multibeam vendor format
9897_20070919_105538_raw.mb56.gz 13.84MB Simrad multibeam vendor format
9898_20070919_110712_raw.mb56.gz 13.98MB Simrad multibeam vendor format
9899_20070919_111738_raw.mb56.gz 12.09MB Simrad multibeam vendor format
9900_20070919_112541_raw.mb56.gz 10.06MB Simrad multibeam vendor format
9901_20070919_113408_raw.mb56.gz 9.29MB Simrad multibeam vendor format
9902_20070919_114159_raw.mb56.gz 9.88MB Simrad multibeam vendor format
9903_20070919_114920_raw.mb56.gz 9.38MB Simrad multibeam vendor format
9904_20070919_115655_raw.mb56.gz 8.12MB Simrad multibeam vendor format
9905_20070919_120333_raw.mb56.gz 6.94MB Simrad multibeam vendor format
9906_20070919_121042_raw.mb56.gz 3.08MB Simrad multibeam vendor format
9907_20070919_121514_raw.mb56.gz 6.25MB Simrad multibeam vendor format
9908_20070919_124444_raw.mb56.gz 6.36MB Simrad multibeam vendor format
9909_20070919_124836_raw.mb56.gz 12.15MB Simrad multibeam vendor format
9910_20070919_125830_raw.mb56.gz 9.27MB Simrad multibeam vendor format
9911_20070919_130649_raw.mb56.gz 8.16MB Simrad multibeam vendor format
9912_20070919_131432_raw.mb56.gz 5.57MB Simrad multibeam vendor format
9913_20070919_132423_raw.mb56.gz 6.73MB Simrad multibeam vendor format
9914_20070919_132944_raw.mb56.gz 6.63MB Simrad multibeam vendor format
9915_20070919_133332_raw.mb56.gz 14.45MB Simrad multibeam vendor format
9916_20070919_134326_raw.mb56.gz 17.21MB Simrad multibeam vendor format
9917_20070919_135707_raw.mb56.gz 6.91MB Simrad multibeam vendor format
9918_20070919_140427_raw.mb56.gz 3.54MB Simrad multibeam vendor format
9919_20070919_142046_raw.mb56.gz 13.27MB Simrad multibeam vendor format
9920_20070919_143112_raw.mb56.gz 12.05MB Simrad multibeam vendor format
9921_20070919_144018_raw.mb56.gz 12.98MB Simrad multibeam vendor format
9922_20070919_145708_raw.mb56.gz 11.08MB Simrad multibeam vendor format
9923_20070919_151440_raw.mb56.gz 12.16MB Simrad multibeam vendor format
9924_20070919_153143_raw.mb56.gz 10.59MB Simrad multibeam vendor format
9925_20070919_155534_raw.mb56.gz 3.73MB Simrad multibeam vendor format
9926_20070919_160254_raw.mb56.gz 9.34MB Simrad multibeam vendor format
9927_20070919_161003_raw.mb56.gz 4.12MB Simrad multibeam vendor format
9928_20070919_161716_raw.mb56.gz 4.91MB Simrad multibeam vendor format
9929_20070921_111718_raw.mb56.gz 317.30MB Simrad multibeam vendor format
9930_20070921_183638_raw.mb56.gz 260.05MB Simrad multibeam vendor format
9931_20070921_223734_raw.mb56.gz 71.91MB Simrad multibeam vendor format
9932_20070921_234630_raw.mb56.gz 67.33MB Simrad multibeam vendor format
9933_20070922_005030_raw.mb56.gz 67.50MB Simrad multibeam vendor format
9934_20070922_020303_raw.mb56.gz 59.24MB Simrad multibeam vendor format
9935_20070922_025939_raw.mb56.gz 57.08MB Simrad multibeam vendor format
9936_20070922_040720_raw.mb56.gz 51.53MB Simrad multibeam vendor format
9937_20070922_045740_raw.mb56.gz 51.45MB Simrad multibeam vendor format
9938_20070922_054752_raw.mb56.gz 46.65MB Simrad multibeam vendor format
9939_20070922_063345_raw.mb56.gz 40.59MB Simrad multibeam vendor format
9940_20070922_071329_raw.mb56.gz 41.40MB Simrad multibeam vendor format
9941_20070922_075336_raw.mb56.gz 36.86MB Simrad multibeam vendor format
9942_20070922_083032_raw.mb56.gz 38.69MB Simrad multibeam vendor format
9943_20070922_090903_raw.mb56.gz 25.08MB Simrad multibeam vendor format
9944_20070922_093554_raw.mb56.gz 23.44MB Simrad multibeam vendor format
9945_20070922_101553_raw.mb56.gz 175.24MB Simrad multibeam vendor format
9946_20070922_132905_raw.mb56.gz 75.41MB Simrad multibeam vendor format
9947_20070922_144210_raw.mb56.gz 234.16MB Simrad multibeam vendor format
9948_20070922_182628_raw.mb56.gz 252.26MB Simrad multibeam vendor format
9949_20070922_221924_raw.mb56.gz 50.18MB Simrad multibeam vendor format
9950_20070922_231112_raw.mb56.gz 275.65MB Simrad multibeam vendor format
9951_20070923_032306_raw.mb56.gz 323.06MB Simrad multibeam vendor format
9952_20070923_081856_raw.mb56.gz 233.12MB Simrad multibeam vendor format
9953_20070923_115100_raw.mb56.gz 66.03MB Simrad multibeam vendor format
9954_20070923_131129_raw.mb56.gz 106.09MB Simrad multibeam vendor format
9955_20070925_170832_raw.mb56.gz 112.89MB Simrad multibeam vendor format
9956_20070925_185500_raw.mb56.gz 155.54MB Simrad multibeam vendor format
9957_20070925_212123_raw.mb56.gz 166.66MB Simrad multibeam vendor format
9958_20070925_235637_raw.mb56.gz 164.08MB Simrad multibeam vendor format
9959_20070926_023111_raw.mb56.gz 141.18MB Simrad multibeam vendor format
9960_20070926_050416_raw.mb56.gz 16.33MB Simrad multibeam vendor format
9961_20070926_052202_raw.mb56.gz 153.73MB Simrad multibeam vendor format
9962_20070926_074703_raw.mb56.gz 140.95MB Simrad multibeam vendor format
9963_20070926_100017_raw.mb56.gz 5.07MB Simrad multibeam vendor format
9964_20070927_002450_raw.mb56.gz 72.38MB Simrad multibeam vendor format
9965_20070927_015546_raw.mb56.gz 61.35MB Simrad multibeam vendor format
9966_20070927_025359_raw.mb56.gz 134.36MB Simrad multibeam vendor format
9967_20070927_050247_raw.mb56.gz 50.94MB Simrad multibeam vendor format
9968_20070927_055428_raw.mb56.gz 52.38MB Simrad multibeam vendor format
9969_20070927_064624_raw.mb56.gz 47.29MB Simrad multibeam vendor format
9970_20070927_073312_raw.mb56.gz 48.84MB Simrad multibeam vendor format
9971_20070927_082137_raw.mb56.gz 44.44MB Simrad multibeam vendor format
9972_20070927_091006_raw.mb56.gz 102.30MB Simrad multibeam vendor format
9973_20070927_104736_raw.mb56.gz 22.25MB Simrad multibeam vendor format
9974_20070927_111013_raw.mb56.gz 29.52MB Simrad multibeam vendor format
9975_20070927_115004_raw.mb56.gz 161.54MB Simrad multibeam vendor format
9976_20070927_142009_raw.mb56.gz 251.06MB Simrad multibeam vendor format
9977_20070927_194533_raw.mb56.gz 21.13MB Simrad multibeam vendor format
9978_20070927_200716_raw.mb56.gz 20.90MB Simrad multibeam vendor format
9979_20070927_203017_raw.mb56.gz 67.73MB Simrad multibeam vendor format
9980_20070927_213217_raw.mb56.gz 73.80MB Simrad multibeam vendor format
9981_20070927_224308_raw.mb56.gz 65.90MB Simrad multibeam vendor format
9982_20070927_234431_raw.mb56.gz 69.68MB Simrad multibeam vendor format
9983_20070928_004756_raw.mb56.gz 63.69MB Simrad multibeam vendor format
9984_20070928_021835_raw.mb56.gz 59.50MB Simrad multibeam vendor format
9985_20070928_032749_raw.mb56.gz 42.07MB Simrad multibeam vendor format
9986_20070928_040939_raw.mb56.gz 33.04MB Simrad multibeam vendor format
9987_20070928_044402_raw.mb56.gz 31.52MB Simrad multibeam vendor format
9988_20070928_051543_raw.mb56.gz 28.13MB Simrad multibeam vendor format
9989_20070928_054345_raw.mb56.gz 21.14MB Simrad multibeam vendor format
9990_20070928_060719_raw.mb56.gz 14.55MB Simrad multibeam vendor format
9991_20070928_062346_raw.mb56.gz 11.24MB Simrad multibeam vendor format
9992_20070928_072726_raw.mb56.gz 79.39MB Simrad multibeam vendor format
9993_20070928_084516_raw.mb56.gz 184.26MB Simrad multibeam vendor format
9994_20070928_113710_raw.mb56.gz 179.58MB Simrad multibeam vendor format
9995_20070928_142038_raw.mb56.gz 178.88MB Simrad multibeam vendor format
9996_20070928_170702_raw.mb56.gz 173.99MB Simrad multibeam vendor format
9997_20070928_204755_raw.mb56.gz 78.83MB Simrad multibeam vendor format
9998_20070928_220351_raw.mb56.gz 68.98MB Simrad multibeam vendor format

Metadata Files: 1

Files File Size Description
CV07_02_Multibeam.xml NGDC created ISO metadata